[[{"header":{"parameterUnit":"m.s-1","parameterCategory":1,"la1":30.2991,"la2":30.254,"lo1":-89.0895,"lo2":-89.0444,"dy":0.0017,"dx":0.0017,"nx":28,"ny":28,"refTime":"2023-07-28T21:00:00:Z","depth":0,"parameterNumber":2,"parameterNumberName":"U-component_of_WINDS"},"data":[0,0,0,0,0,0,0,0,0,0,0,0,0,0,0,0,0,0,0,0,0,0,0,0,0,0,0,0,0,0,0,0,0,0,0,0,0,0,0,0,0,0,0,0,0,0,0,0,0,0,0,0,0,0,0,0,0,0,3.1106,3.1106,0,3.11,3.11,3.1099,3.0935,3.0931,3.0927,3.0923,3.0919,3.0923,3.0927,0,0,0,0,0,0,0,0,0,0,0,0,0,3.0981,3.0984,3.1106,3.1106,3.1106,3.11,3.11,3.1099,3.0936,3.0931,3.0926,3.0921,3.0918,3.0922,3.0927,0,0,0,0,0,0,0,0,0,0,0,0,0,3.1011,3.0985,3.1107,3.1024,3.1016,3.11,3.11,3.1099,3.0937,3.0931,3.0924,3.0918,3.0916,3.0922,3.0928,3.1091,0,0,3.0945,3.0948,0,0,0,0,0,0,0,0,3.101,3.1016,3.1036,3.103,3.1021,3.1012,3.1054,3.1097,3.0939,3.0967,3.0923,3.0915,3.0955,3.0958,3.097,3.109,3.109,3.0946,3.0949,3.0952,3.0954,0,0,0,0,0,0,0,3.1008,3.1015,3.1104,3.1037,3.1028,3.0988,3.0985,3.1061,3.0997,3.0964,3.0952,3.0954,3.095,3.0965,3.0969,3.109,3.0946,3.0951,3.0954,3.0957,3.1344,3.135,0,0,0,0,0,0,3.1017,3.1015,3.1104,3.1104,3.1,3.0996,3.0992,3.1021,3.0996,3.0986,3.0959,3.0946,3.0958,3.0962,3.0968,3.1157,3.0952,3.0957,3.0961,3.1337,3.1345,3.1353,0,0,0,0,0,0,3.1014,3.1026,3.1104,3.1056,3.1063,3.1004,3.1038,3.1025,3.1039,3.0992,3.098,3.0986,3.0954,3.096,3.1061,3.1155,3.096,3.0965,3.1329,3.134,3.1349,3.1537,0,0,0,0,0,0,3.1012,3.1026,3.1087,3.1058,3.1066,3.1197,3.1044,3.1029,3.1049,3.1032,3.1014,3.1005,3.0949,3.1053,3.1067,3.1159,3.097,3.132,3.1334,3.1346,3.1522,3.1552,3.1578,0,0,0,0,0,3.1008,3.1141,3.1091,3.1103,3.114,3.1203,3.1207,3.1139,3.1058,3.1118,3.1088,3.1005,3.1142,3.1065,3.1079,3.1175,3.1314,3.133,3.1345,3.151,3.1546,3.1578,0,0,0,0,0,0,3.1183,3.1136,3.108,3.1207,3.121,3.1175,3.125,3.118,3.1207,3.119,3.1106,3.1103,3.1218,3.1206,3.1121,3.1331,3.1214,3.1233,3.1334,3.1369,3.1397,3.1397,3.0974,0,0,0,0,0,3.1237,3.129,3.1246,3.1363,3.1367,3.1309,3.1333,3.1281,3.1281,3.1281,3.1258,3.1262,3.1306,3.1337,3.1374,3.1519,3.1513,3.1592,3.162,3.1643,3.1661,3.1737,3.1771,3.1403,3.1403,3.1403,0,0,3.1348,3.1328,3.1368,3.1398,3.1394,3.1452,3.1311,3.1379,3.1421,3.1292,3.1386,3.1369,3.1368,3.1492,3.1546,3.1486,3.1761,3.1663,3.1682,3.1686,3.1756,3.1791,3.1822,3.1413,3.1411,3.141,0,0,3.158,3.1571,3.1667,3.1666,3.1661,3.1621,3.1645,3.162,3.1604,3.1696,3.16,3.165,3.1728,3.1731,3.1743,3.1977,3.1902,3.1991,3.2138,3.2213,3.2242,3.2268,3.2352,3.2383,3.2009,3.2009,3.201,0,3.1719,3.1802,3.1726,3.18,3.1816,3.1701,3.1798,3.1801,3.181,3.1825,3.1757,3.1851,3.1842,3.1966,3.2023,3.2036,3.2061,3.1993,3.2244,3.2269,3.2291,3.237,3.2402,3.202,3.2019,3.2018,3.2017,0,3.1974,3.2033,3.2112,3.2122,3.2147,3.2233,3.217,3.2205,3.2151,3.2119,3.2215,3.22,3.2232,3.2258,3.2206,3.2374,3.2337,3.2259,3.2139,3.2339,3.2412,3.2441,3.2036,3.2032,3.2029,3.2026,0,0,3.2317,3.2283,3.2314,3.2317,3.2303,3.2348,3.2429,3.246,3.2492,3.2502,3.2568,3.2636,3.2562,3.2576,3.2523,3.259,3.2776,3.2502,3.2501,3.2554,3.2962,3.3021,3.3057,3.2726,3.2732,3.2736,3.2962,0,3.2542,3.2676,3.261,3.2754,3.2808,3.2699,3.2769,3.2769,3.2741,3.2784,3.2753,3.2803,3.2702,3.271,3.277,3.2741,3.2857,3.2724,3.2788,3.2791,3.2792,3.3095,3.3158,3.3372,3.299,3.2994,3.2998,0,3.2822,3.2843,3.2992,3.2968,3.2988,3.3052,3.3075,3.3117,3.3115,3.309,3.3106,3.3037,3.3116,3.2998,3.3105,3.3016,3.3038,3.3028,3.3034,3.3038,3.2907,3.3108,3.3438,3.3471,3.3042,3.3038,3.3035,0,3.3058,3.3123,3.322,3.3226,3.3201,3.3249,3.3241,3.3232,3.3255,3.3276,3.329,3.332,3.3337,3.3362,3.3304,3.3224,3.342,3.3297,3.3402,3.3404,3.3449,3.3447,3.3789,3.3464,3.3463,3.3463,3.3462,0,3.3316,3.3411,3.3326,3.3386,3.349,3.3413,3.3518,3.3498,3.3492,3.3547,3.3455,3.3509,3.3428,3.3475,3.343,3.3526,3.3534,3.3517,3.3504,3.3525,3.3528,3.3539,3.3523,3.3471,3.3469,3.3468,3.3466,0,3.3597,3.3543,3.3642,3.361,3.3604,3.3682,3.3655,3.371,3.3675,3.3746,3.3758,3.3705,3.3755,3.3699,3.3745,3.3714,3.3844,3.3809,3.3845,3.3835,3.3944,3.3935,3.4305,3.435,3.3997,3.4,3.4003,0,3.3765,3.3836,3.3811,3.3841,3.3838,3.3887,3.391,3.3837,3.3865,3.3868,3.3923,3.3964,3.3993,3.4078,3.4044,3.4078,3.4044,3.4171,3.4048,3.4068,3.4046,3.4043,3.405,3.4197,3.4201,3.4204,3.4207,0,3.407,3.404,3.4075,3.4102,3.4132,3.415,3.4161,3.419,3.4115,3.4151,3.42,3.4223,3.4269,3.4311,3.4336,3.4328,3.4257,3.4246,3.4272,3.4295,3.4313,3.4305,3.3914,3.4238,3.4235,3.4232,3.4231,3.4229,3.4299,3.4357,3.4349,3.4392,3.4392,3.4405,3.4454,3.4426,3.4465,3.4496,3.4451,3.4513,3.4509,3.4534,3.4535,3.4583,3.4529,3.4567,3.4576,3.4587,3.4604,3.4305,3.4587,3.4586,3.4585,3.4585,3.4584,0,3.4599,3.4589,3.4629,3.4646,3.4681,3.4608,3.4617,3.465,3.4705,3.4707,3.4738,3.4795,3.4836,3.4805,3.4839,3.4884,3.4851,3.4895,3.4891,3.4891,3.465,3.4624,3.4921,3.4921,3.4921,3.4921,3.4921,3.492,3.476,3.4853,3.4823,3.4916,3.4904,3.4963,3.4974,3.4986,3.4987,3.5054,3.5087,3.5066,3.5056,3.5089,3.5124,3.5113,3.5131,3.5187,3.5165,3.4941,3.4908,3.4876,3.4851,3.5191,3.5191,3.5402,3.5404,3.5405]},{"header":{"parameterUnit":"m.s-1","parameterCategory":1,"la1":30.2991,"la2":30.254,"lo1":-89.0895,"lo2":-89.0444,"dy":0.0017,"dx":0.0017,"nx":28,"ny":28,"refTime":"2023-07-28T21:00:00:Z","depth":0,"parameterNumber":3,"parameterNumberName":"V-component_of_WINDS"},"data":[0,0,0,0,0,0,0,0,0,0,0,0,0,0,0,0,0,0,0,0,0,0,0,0,0,0,0,0,0,0,0,0,0,0,0,0,0,0,0,0,0,0,0,0,0,0,0,0,0,0,0,0,0,0,0,0,0,0,-0.0324,-0.0323,0,-0.0232,-0.0231,-0.023,-0.019,-0.019,-0.019,-0.019,-0.0094,-0.0092,-0.0089,0,0,0,0,0,0,0,0,0,0,0,0,0,-0.0464,-0.0461,-0.0324,-0.0323,-0.0322,-0.0232,-0.0231,-0.0229,-0.019,-0.019,-0.019,-0.019,-0.0095,-0.0092,-0.0089,0,0,0,0,0,0,0,0,0,0,0,0,0,-0.0391,-0.0461,-0.0324,-0.0291,-0.0287,-0.0232,-0.0231,-0.0229,-0.019,-0.019,-0.019,-0.019,-0.0096,-0.0092,-0.0088,-0.0059,0,0,-0.0076,-0.0074,0,0,0,0,0,0,0,0,-0.0395,-0.0385,-0.0297,-0.0293,-0.0289,-0.0222,-0.0245,-0.0172,-0.019,-0.0227,-0.019,-0.019,-0.0137,-0.0129,-0.0111,-0.0054,-0.005,-0.0076,-0.0073,-0.0071,-0.007,0,0,0,0,0,0,0,-0.04,-0.0389,-0.0287,-0.0296,-0.0291,-0.028,-0.027,-0.0231,-0.0181,-0.0223,-0.022,-0.021,-0.0134,-0.0115,-0.0109,-0.0049,-0.0076,-0.0072,-0.007,-0.0068,0.0037,0.0038,0,0,0,0,0,0,-0.0411,-0.0394,-0.029,-0.0285,-0.0343,-0.0278,-0.0266,-0.0243,-0.0182,-0.0173,-0.021,-0.0209,-0.0122,-0.0114,-0.0105,-0.0066,-0.0071,-0.0068,-0.0065,0.0037,0.0038,0.0038,0,0,0,0,0,0,-0.0414,-0.0402,-0.0294,-0.0338,-0.0324,-0.0275,-0.025,-0.0242,-0.0223,-0.0172,-0.0162,-0.02,-0.0122,-0.0111,-0.0071,-0.0063,-0.0066,-0.0062,0.0037,0.0037,0.0038,0.0011,0,0,0,0,0,0,-0.0418,-0.0403,-0.0392,-0.0338,-0.0322,-0.0261,-0.0249,-0.024,-0.0216,-0.0213,-0.016,-0.0151,-0.0121,-0.0077,-0.0067,-0.0057,-0.0059,0.0036,0.0037,0.0038,0.0011,0.0011,0.001,0,0,0,0,0,-0.0423,-0.0403,-0.0391,-0.0379,-0.0306,-0.0261,-0.0251,-0.0218,-0.0215,-0.0203,-0.0171,-0.0153,-0.0065,-0.0073,-0.0061,-0.005,0.0036,0.0037,0.0037,0.0012,0.0011,0.001,0,0,0,0,0,0,-0.0456,-0.0395,-0.0382,-0.0344,-0.0308,-0.0254,-0.0238,-0.022,-0.0184,-0.0183,-0.0143,-0.0131,-0.0094,-0.0068,-0.0078,-0.0019,-0.0013,-0.001,-0.0037,-0.0037,-0.0038,-0.0045,-0.0056,0,0,0,0,0,-0.0459,-0.0427,-0.0376,-0.0347,-0.033,-0.0287,-0.0266,-0.0244,-0.0205,-0.0189,-0.0154,-0.0116,-0.008,-0.0057,-0.0022,0.0015,0.0028,0.0029,0.0028,0.0027,0.0029,0.0051,0.0052,0.0041,0.0041,0.0041,0,0,-0.0464,-0.0427,-0.041,-0.0353,-0.0322,-0.029,-0.0275,-0.0241,-0.0217,-0.0184,-0.0144,-0.0117,-0.0072,-0.0033,-0.0015,-0.0011,0.0035,0.0028,0.0027,0.003,0.0052,0.0053,0.0054,0.0041,0.0041,0.0041,0,0,-0.0457,-0.0426,-0.0399,-0.0369,-0.0324,-0.0295,-0.0289,-0.0238,-0.0219,-0.0178,-0.0153,-0.0123,-0.0062,-0.0031,-0.0008,0.001,0.0028,0.0021,0.0017,0.0038,0.0039,0.004,0.0046,0.0048,0.0023,0.0023,0.0023,0,-0.047,-0.0421,-0.0387,-0.0355,-0.0331,-0.03,-0.0272,-0.0244,-0.0189,-0.0173,-0.0169,-0.0092,-0.006,-0.0014,-0.0009,0.0009,0.0018,0.0015,0.0036,0.0037,0.0038,0.0045,0.0048,0.0022,0.0022,0.0022,0.0022,0,-0.0438,-0.0405,-0.0388,-0.0336,-0.031,-0.028,-0.0241,-0.0218,-0.0198,-0.0171,-0.0129,-0.009,-0.0045,-0.0033,-0.0013,0.0017,0.0018,0.0028,0.0034,0.0038,0.0045,0.0048,0.002,0.002,0.0021,0.0021,0,0,-0.0449,-0.0379,-0.0373,-0.0349,-0.0297,-0.027,-0.0239,-0.0196,-0.0177,-0.0141,-0.0113,-0.0062,-0.0053,-0.0026,-0.0002,0.0016,0.0028,0.0024,0.0026,0.0024,0.0063,0.0055,0.0058,0.004,0.004,0.0041,0.0059,0,-0.0435,-0.0378,-0.0346,-0.0302,-0.0271,-0.0241,-0.0214,-0.0179,-0.0152,-0.0121,-0.0091,-0.0056,-0.0046,-0.003,-0.0011,0.0022,0.0036,0.0021,0.0066,0.0067,0.0055,0.0061,0.0053,0.0069,0.0062,0.0063,0.0063,0,-0.041,-0.0375,-0.0328,-0.0279,-0.0265,-0.0241,-0.0199,-0.017,-0.0129,-0.0111,-0.0082,-0.0058,-0.0024,-0.0021,0.0028,0.0017,0.0037,0.0056,0.0057,0.0063,0.0066,0.0068,0.0075,0.0077,0.0068,0.0067,0.0067,0,-0.0423,-0.0363,-0.0327,-0.0307,-0.025,-0.0234,-0.0209,-0.0168,-0.0145,-0.0108,-0.0092,-0.0052,-0.003,0.0001,0.0035,0.0034,0.008,0.0086,0.0097,0.0096,0.0106,0.0105,0.0116,0.0118,0.0118,0.0118,0.0118,0,-0.041,-0.0382,-0.0332,-0.031,-0.0277,-0.0242,-0.0211,-0.0183,-0.0148,-0.012,-0.0092,-0.0066,-0.0023,0.0009,0.0035,0.0072,0.0081,0.0097,0.0104,0.0095,0.0093,0.011,0.0109,0.0119,0.0118,0.0118,0.0118,0,-0.0418,-0.0383,-0.0342,-0.0291,-0.0278,-0.0256,-0.0212,-0.0189,-0.0162,-0.0126,-0.0116,-0.0072,-0.0033,0.0003,0.0055,0.0073,0.0109,0.0118,0.0096,0.0099,0.0108,0.0107,0.0131,0.0137,0.0134,0.0134,0.0134,0,-0.0412,-0.039,-0.0337,-0.0316,-0.0292,-0.0259,-0.0235,-0.0199,-0.0175,-0.0127,-0.011,-0.0069,-0.0035,0.0025,0.0062,0.0102,0.0112,0.0118,0.0118,0.0108,0.0113,0.0111,0.0114,0.0117,0.0117,0.0117,0.0117,0,-0.0405,-0.0389,-0.0355,-0.0316,-0.0288,-0.0255,-0.022,-0.0205,-0.0162,-0.0136,-0.0097,-0.0071,-0.0018,0.0022,0.0066,0.0092,0.0112,0.0116,0.0121,0.0112,0.0098,0.0106,0.0094,0.0115,0.0116,0.0116,0.0116,0.0116,-0.0405,-0.0384,-0.0344,-0.0307,-0.0278,-0.0247,-0.0223,-0.0192,-0.0159,-0.0114,-0.0095,-0.0055,-0.0014,0.0046,0.0072,0.0104,0.0109,0.0116,0.0118,0.0119,0.0117,0.0092,0.0112,0.0113,0.0113,0.0113,0.0113,0,-0.0396,-0.0369,-0.0336,-0.0289,-0.0261,-0.0245,-0.0207,-0.0184,-0.0149,-0.0113,-0.0081,-0.0035,0.0004,0.0043,0.0085,0.0103,0.0113,0.0112,0.0112,0.0117,0.011,0.0102,0.0103,0.0103,0.0103,0.0103,0.0103,0.0103,-0.0388,-0.0352,-0.0331,-0.028,-0.0253,-0.0214,-0.0193,-0.0164,-0.0136,-0.0086,-0.0054,-0.0029,0.0009,0.0053,0.0089,0.01,0.0114,0.0111,0.0124,0.0117,0.0118,0.0118,0.0111,0.0114,0.0114,0.0129,0.0129,0.0129]}]]